N4FLB Weather Reports


Display with metric or nautical units.
time (UTC)temp
F
wind
direction
speed
MPH
gust
MPH
rain 1hr
in
rain 24hr
in
rain mn
in
humidity
%
barometer
mb
20260504215404 80 182 3.0 9.0 0.00 0.00 0.00 41 1015.3
20260504214504 80 171 3.0 7.0 0.00 0.00 0.00 41 1015.2
20260504213604 80 198 2.0 6.0 0.00 0.00 0.00 40 1015.4
20260504212704 80 184 4.0 8.0 0.00 0.00 0.00 39 1015.3
20260504211804 80 183 4.0 8.0 0.00 0.00 0.00 38 1015.4
20260504210925 80 170 4.0 11.0 0.00 0.00 0.00 40 1015.4
20260504210004 80 173 3.0 10.0 0.00 0.00 0.00 41 1015.6
20260504205404 80 225 3.0 10.0 0.00 0.00 0.00 39 1015.7
20260504204504 79 191 4.0 10.0 0.00 0.00 0.00 39 1015.7
20260504203625 80 178 4.0 10.0 0.00 0.00 0.00 38 1015.8
20260504202704 79 167 4.0 9.0 0.00 0.00 0.00 42 1015.8
20260504201803 79 201 3.0 9.0 0.00 0.00 0.00 40 1016.1
20260504200903 79 192 3.0 10.0 0.00 0.00 0.00 39 1016.2
20260504200004 79 178 4.0 12.0 0.00 0.00 0.00 41 1016.4
20260504195403 79 191 4.0 12.0 0.00 0.00 0.00 41 1016.5
20260504194503 78 164 4.0 9.0 0.00 0.00 0.00 38 1016.5
20260504193624 78 211 3.0 7.0 0.00 0.00 0.00 41 1016.7
20260504192703 78 156 4.0 11.0 0.00 0.00 0.00 41 1016.7
20260504191803 78 151 4.0 10.0 0.00 0.00 0.00 40 1016.8
20260504190903 78 148 3.0 7.0 0.00 0.00 0.00 42 1017.0
20260504190003 77 162 3.0 10.0 0.00 0.00 0.00 45 1017.1
20260504185403 77 144 3.0 10.0 0.00 0.00 0.00 43 1017.2
20260504184505 77 150 3.0 8.0 0.00 0.00 0.00 43 1017.2
20260504183605 77 173 3.0 8.0 0.00 0.00 0.00 46 1017.3
20260504182726 77 161 3.0 9.0 0.00 0.00 0.00 47 1017.5
20260504181805 76 138 4.0 9.0 0.00 0.00 0.00 47 1017.7
20260504180926 76 163 2.0 8.0 0.00 0.00 0.00 45 1017.8
20260504180005 76 162 3.0 8.0 0.00 0.00 0.00 46 1017.9
20260504175405 76 151 3.0 7.0 0.00 0.00 0.00 46 1018.0
20260504174505 76 145 4.0 9.0 0.00 0.00 0.00 48 1018.0
20260504173605 76 181 3.0 9.0 0.00 0.00 0.00 47 1018.0
20260504172726 75 153 4.0 10.0 0.00 0.00 0.00 46 1018.2
20260504171826 75 164 4.0 8.0 0.00 0.00 0.00 49 1018.2
20260504170904 75 166 4.0 10.0 0.00 0.00 0.00 50 1018.1
20260504150904 68 172 4.0 8.0 0.00 0.00 0.00 69 1019.3
20260504140925 64 142 2.0 5.0 0.00 0.00 0.00 73 1019.7
20260504081805 49 0 0.0 0.0 0.00 0.00 0.00 97 1019.0
20260504080904 49 0 0.0 0.0 0.00 0.00 0.00 97 1019.1
20260504045404 53 67 0.0 1.0 0.00 0.00 0.00 96 1020.0
20260504044504 52 0 0.0 0.0 0.00 0.00 0.00 95 1020.2
20260504043604 53 57 0.0 3.0 0.00 0.00 0.00 95 1020.2
20260504042704 53 264 1.0 4.0 0.00 0.00 0.00 94 1020.4
20260504041804 54 272 1.0 4.0 0.00 0.00 0.00 95 1020.4
20260504040904 54 0 0.0 0.0 0.00 0.00 0.00 94 1020.4
20260504040004 54 0 0.0 0.0 0.00 0.00 0.00 94 1020.3
20260504035404 54 41 0.0 1.0 0.00 0.00 0.00 93 1020.3
20260504034525 54 0 0.0 0.0 0.00 0.00 0.00 93 1020.5
20260504033603 54 0 0.0 0.0 0.00 0.00 0.00 92 1020.5
20260504032704 55 0 0.0 0.0 0.00 0.00 0.00 90 1020.4
20260504031803 55 0 0.0 0.0 0.00 0.00 0.00 90 1020.3
20260504030903 56 41 0.0 2.0 0.00 0.00 0.00 89 1020.2
20260504030024 56 41 0.0 1.0 0.00 0.00 0.00 88 1020.4
20260504025403 56 41 0.0 1.0 0.00 0.00 0.00 87 1020.2
20260504024525 56 0 0.0 0.0 0.00 0.00 0.00 85 1020.1
20260504023603 56 0 0.0 0.0 0.00 0.00 0.00 83 1020.0
20260504022703 57 0 0.0 0.0 0.00 0.00 0.00 82 1020.0
20260504021803 57 41 0.0 1.0 0.00 0.00 0.00 80 1019.9
20260504020903 58 0 0.0 0.0 0.00 0.00 0.00 78 1019.9
20260504020003 58 41 0.0 1.0 0.00 0.00 0.00 76 1019.8
20260504015424 59 0 0.0 0.0 0.00 0.00 0.00 72 1019.6
20260504014503 59 0 0.0 0.0 0.00 0.00 0.00 70 1019.5
20260504013603 60 0 0.0 0.0 0.00 0.00 0.00 67 1019.4
20260504012703 60 0 0.0 0.0 0.00 0.00 0.00 65 1019.4
20260504011803 61 0 0.0 0.0 0.00 0.00 0.00 64 1019.4
20260504010903 62 0 0.0 0.0 0.00 0.00 0.00 63 1019.3
20260504010024 63 0 0.0 0.0 0.00 0.00 0.00 61 1019.2
20260504005403 64 0 0.0 0.0 0.00 0.00 0.00 60 1019.2
20260504004503 65 0 0.0 0.0 0.00 0.00 0.00 57 1019.0
20260504003603 66 0 0.0 0.0 0.00 0.00 0.00 55 1019.0
20260504002705 68 0 0.0 0.0 0.00 0.00 0.00 51 1018.7
20260504001805 70 0 0.0 0.0 0.00 0.00 0.00 49 1018.6
20260504000905 71 0 0.0 0.0 0.00 0.00 0.00 47 1018.7
20260504000005 71 48 0.0 2.0 0.00 0.00 0.00 45 1018.6
20260503235405 71 19 1.0 4.0 0.00 0.00 0.00 44 1018.5
20260503234505 72 343 1.0 4.0 0.00 0.00 0.00 42 1018.5
20260503233605 72 348 1.0 5.0 0.00 0.00 0.00 42 1018.7
20260503232705 72 29 1.0 4.0 0.00 0.00 0.00 40 1018.6
20260503231805 73 6 2.0 4.0 0.00 0.00 0.00 41 1018.7
20260503230904 73 3 2.0 4.0 0.00 0.00 0.00 41 1018.8
20260503230005 73 354 2.0 5.0 0.00 0.00 0.00 40 1018.8
20260503225405 73 326 2.0 8.0 0.00 0.00 0.00 41 1018.9
20260503224504 73 8 2.0 5.0 0.00 0.00 0.00 41 1018.9
20260503223604 73 353 3.0 10.0 0.00 0.00 0.00 39 1018.8
20260503222705 73 332 2.0 10.0 0.00 0.00 0.00 40 1019.0
20260503221804 73 328 3.0 8.0 0.00 0.00 0.00 40 1019.0
20260503220904 73 360 3.0 7.0 0.00 0.00 0.00 41 1019.1
20260503220004 73 27 2.0 8.0 0.00 0.00 0.00 40 1019.2